| time (UTC) | temp F | wind direction | speed MPH | gust MPH | rain 1hr in | rain 24hr in | rain mn in | humidity % | barometer mb |
| 20260906194049 | 100 | 257 | 1.0 | 3.0 | 0.00 | 0.00 | 0.00 | 37 | 1007.1 |
| 20260906193050 | 100 | 216 | 0.0 | 2.0 | 0.00 | 0.00 | 0.00 | 36 | 1007.1 |
| 20260906192049 | 100 | 239 | 1.0 | 2.0 | 0.00 | 0.00 | 0.00 | 38 | 1007.2 |
| 20260906191048 | 100 | 200 | 1.0 | 6.0 | 0.00 | 0.00 | 0.00 | 39 | 1007.4 |
| 20260906190049 | 100 | 271 | 1.0 | 3.0 | 0.00 | 0.00 | 0.00 | 38 | 1007.5 |
| 20260906185048 | 99 | 186 | 2.0 | 3.0 | 0.00 | 0.00 | 0.00 | 38 | 1007.6 |
| 20260906184049 | 99 | 74 | 0.0 | 2.0 | 0.00 | 0.00 | 0.00 | 39 | 1007.8 |
| 20260906183049 | 99 | 224 | 2.0 | 3.0 | 0.00 | 0.00 | 0.00 | 39 | 1008.1 |
| 20260906182050 | 99 | 237 | 0.0 | 2.0 | 0.00 | 0.00 | 0.00 | 37 | 1008.1 |
| 20260906181049 | 99 | 187 | 5.0 | 12.0 | 0.00 | 0.00 | 0.00 | 41 | 1008.3 |
| 20260906180048 | 99 | 209 | 1.0 | 1.0 | 0.00 | 0.00 | 0.00 | 39 | 1008.6 |
| 20260906175049 | 99 | 267 | 1.0 | 2.0 | 0.00 | 0.00 | 0.00 | 39 | 1008.9 |
| 20260906174048 | 97 | 338 | 0.0 | 2.0 | 0.00 | 0.00 | 0.00 | 40 | 1009.1 |
| 20260906173050 | 98 | 29 | 1.0 | 1.0 | 0.00 | 0.00 | 0.00 | 40 | 1009.2 |
| 20260906172049 | 97 | 208 | 0.0 | 3.0 | 0.00 | 0.00 | 0.00 | 39 | 1009.4 |
| 20260906171048 | 97 | 277 | 0.0 | 2.0 | 0.00 | 0.00 | 0.00 | 40 | 1009.7 |
| 20260906170049 | 97 | 218 | 0.0 | 0.0 | 0.00 | 0.00 | 0.00 | 40 | 1009.7 |
| 20260906165048 | 96 | 273 | 0.0 | 1.0 | 0.00 | 0.00 | 0.00 | 42 | 1009.7 |
| 20260906164050 | 96 | 320 | 0.0 | 2.0 | 0.00 | 0.00 | 0.00 | 42 | 1009.7 |
| 20260906163049 | 96 | 3 | 0.0 | 2.0 | 0.00 | 0.00 | 0.00 | 42 | 1009.8 |
| 20260906162049 | 95 | 16 | 1.0 | 3.0 | 0.00 | 0.00 | 0.00 | 45 | 1009.8 |
| 20260906161048 | 95 | 279 | 1.0 | 2.0 | 0.00 | 0.00 | 0.00 | 45 | 1009.8 |
| 20260906160049 | 93 | 202 | 0.0 | 0.0 | 0.00 | 0.00 | 0.00 | 47 | 1009.8 |
| 20260906155048 | 93 | 258 | 1.0 | 1.0 | 0.00 | 0.00 | 0.00 | 48 | 1009.8 |
| 20260906154049 | 92 | 339 | 0.0 | 1.0 | 0.00 | 0.00 | 0.00 | 49 | 1009.9 |
| 20260906153048 | 91 | 310 | 0.0 | 2.0 | 0.00 | 0.00 | 0.00 | 49 | 1009.9 |
| 20260906152049 | 90 | 232 | 0.0 | 2.0 | 0.00 | 0.00 | 0.00 | 52 | 1009.9 |
| 20260906151049 | 90 | 237 | 0.0 | 1.0 | 0.00 | 0.00 | 0.00 | 52 | 1009.9 |
| 20260906150048 | 89 | 227 | 0.0 | 1.0 | 0.00 | 0.00 | 0.00 | 55 | 1009.8 |
| 20260906145049 | 88 | 269 | 0.0 | 0.0 | 0.00 | 0.00 | 0.00 | 54 | 1009.8 |
| 20260906144048 | 87 | 208 | 0.0 | 0.0 | 0.00 | 0.00 | 0.00 | 57 | 1009.9 |
| 20260906143049 | 86 | 185 | 1.0 | 2.0 | 0.00 | 0.00 | 0.00 | 60 | 1009.8 |
| 20260906142050 | 85 | 154 | 0.0 | 1.0 | 0.00 | 0.00 | 0.00 | 63 | 1009.8 |
| 20260906141051 | 82 | 151 | 1.0 | 2.0 | 0.00 | 0.00 | 0.00 | 65 | 1010.1 |
| 20260906140050 | 81 | 144 | 0.0 | 2.0 | 0.00 | 0.00 | 0.00 | 72 | 1010.0 |
| 20260906135051 | 80 | 144 | 0.0 | 0.0 | 0.00 | 0.00 | 0.00 | 72 | 1009.8 |
| 20260906134051 | 79 | 144 | 0.0 | 0.0 | 0.00 | 0.00 | 0.00 | 71 | 1009.7 |
| 20260906133050 | 78 | 144 | 0.0 | 0.0 | 0.00 | 0.00 | 0.00 | 71 | 1009.7 |
| 20260906132051 | 77 | 144 | 0.0 | 0.0 | 0.00 | 0.00 | 0.00 | 72 | 1009.7 |
| 20260906131050 | 77 | 144 | 0.0 | 0.0 | 0.00 | 0.00 | 0.00 | 73 | 1009.5 |
| 20260906130050 | 76 | 144 | 0.0 | 0.0 | 0.00 | 0.00 | 0.00 | 75 | 1009.3 |
| 20260906125050 | 76 | 144 | 0.0 | 0.0 | 0.00 | 0.00 | 0.00 | 77 | 1009.1 |
| 20260906124049 | 76 | 144 | 0.0 | 0.0 | 0.00 | 0.00 | 0.00 | 75 | 1009.1 |
| 20260906123050 | 75 | 186 | 0.0 | 0.0 | 0.00 | 0.00 | 0.00 | 76 | 1008.9 |
| 20260906122051 | 75 | 186 | 0.0 | 0.0 | 0.00 | 0.00 | 0.00 | 76 | 1008.7 |
| 20260906121050 | 75 | 186 | 0.0 | 0.0 | 0.00 | 0.00 | 0.00 | 75 | 1008.6 |
| 20260906120051 | 75 | 67 | 0.0 | 0.0 | 0.00 | 0.00 | 0.00 | 74 | 1008.4 |
| 20260906115050 | 75 | 67 | 0.0 | 0.0 | 0.00 | 0.00 | 0.00 | 75 | 1008.4 |
| 20260906114050 | 76 | 67 | 0.0 | 0.0 | 0.00 | 0.00 | 0.00 | 74 | 1008.2 |
| 20260906113051 | 76 | 67 | 0.0 | 0.0 | 0.00 | 0.00 | 0.00 | 75 | 1008.1 |
| 20260906112049 | 76 | 67 | 0.0 | 0.0 | 0.00 | 0.00 | 0.00 | 74 | 1008.0 |
| 20260906111050 | 76 | 67 | 0.0 | 2.0 | 0.00 | 0.00 | 0.00 | 72 | 1007.9 |
| 20260906110051 | 76 | 11 | 0.0 | 1.0 | 0.00 | 0.00 | 0.00 | 72 | 1007.9 |
| 20260906105050 | 76 | 317 | 0.0 | 0.0 | 0.00 | 0.00 | 0.00 | 72 | 1007.9 |
| 20260906104051 | 77 | 302 | 0.0 | 0.0 | 0.00 | 0.00 | 0.00 | 72 | 1007.8 |
| 20260906103050 | 77 | 302 | 0.0 | 0.0 | 0.00 | 0.00 | 0.00 | 71 | 1007.8 |
| 20260906102051 | 77 | 302 | 0.0 | 0.0 | 0.00 | 0.00 | 0.00 | 71 | 1007.7 |
| 20260906101050 | 77 | 302 | 0.0 | 0.0 | 0.00 | 0.00 | 0.00 | 70 | 1007.8 |
| 20260906100050 | 77 | 178 | 0.0 | 0.0 | 0.00 | 0.00 | 0.00 | 69 | 1007.7 |
| 20260906095049 | 78 | 55 | 0.0 | 0.0 | 0.00 | 0.00 | 0.00 | 69 | 1007.7 |
| 20260906094051 | 78 | 40 | 0.0 | 2.0 | 0.00 | 0.00 | 0.00 | 69 | 1007.7 |
| 20260906093050 | 78 | 310 | 0.0 | 1.0 | 0.00 | 0.00 | 0.00 | 69 | 1007.7 |
| 20260906092051 | 78 | 75 | 0.0 | 2.0 | 0.00 | 0.00 | 0.00 | 69 | 1007.7 |
| 20260906091050 | 78 | 63 | 0.0 | 1.0 | 0.00 | 0.00 | 0.00 | 69 | 1007.6 |
| 20260906090051 | 78 | 90 | 0.0 | 1.0 | 0.00 | 0.00 | 0.00 | 68 | 1007.7 |
| 20260906085050 | 78 | 166 | 0.0 | 0.0 | 0.00 | 0.00 | 0.00 | 68 | 1007.6 |
| 20260906084051 | 78 | 197 | 0.0 | 0.0 | 0.00 | 0.00 | 0.00 | 67 | 1007.5 |
| 20260906083050 | 79 | 230 | 0.0 | 2.0 | 0.00 | 0.00 | 0.00 | 68 | 1007.5 |
| 20260906082051 | 79 | 121 | 0.0 | 1.0 | 0.00 | 0.00 | 0.00 | 67 | 1007.3 |
| 20260906081050 | 79 | 166 | 0.0 | 0.0 | 0.00 | 0.00 | 0.00 | 67 | 1007.5 |
| 20260906080049 | 79 | 202 | 0.0 | 0.0 | 0.00 | 0.00 | 0.00 | 65 | 1007.3 |
| 20260906075050 | 80 | 213 | 0.0 | 0.0 | 0.00 | 0.00 | 0.00 | 64 | 1007.2 |
| 20260906074050 | 80 | 234 | 0.0 | 0.0 | 0.00 | 0.00 | 0.00 | 64 | 1007.2 |
| 20260906073051 | 80 | 278 | 0.0 | 0.0 | 0.00 | 0.00 | 0.00 | 64 | 1007.1 |
| 20260906072049 | 80 | 155 | 0.0 | 0.0 | 0.00 | 0.00 | 0.00 | 64 | 1007.1 |
| 20260906071051 | 81 | 202 | 0.0 | 0.0 | 0.00 | 0.00 | 0.00 | 64 | 1007.1 |
| 20260906070049 | 81 | 227 | 0.0 | 0.0 | 0.00 | 0.00 | 0.00 | 63 | 1007.1 |
| 20260906065050 | 81 | 201 | 0.0 | 0.0 | 0.00 | 0.00 | 0.00 | 63 | 1007.1 |
| 20260906064050 | 81 | 221 | 0.0 | 0.0 | 0.00 | 0.00 | 0.00 | 63 | 1007.1 |
| 20260906063051 | 81 | 259 | 0.0 | 2.0 | 0.00 | 0.00 | 0.00 | 63 | 1007.1 |
| 20260906062049 | 81 | 255 | 0.0 | 0.0 | 0.00 | 0.00 | 0.00 | 63 | 1007.1 |
| 20260906061050 | 81 | 291 | 0.0 | 0.0 | 0.00 | 0.00 | 0.00 | 62 | 1007.1 |
| 20260906060050 | 82 | 224 | 0.0 | 1.0 | 0.00 | 0.00 | 0.00 | 61 | 1007.2 |
| 20260906055049 | 82 | 355 | 0.0 | 2.0 | 0.00 | 0.00 | 0.00 | 61 | 1007.4 |
| 20260906054050 | 83 | 328 | 0.0 | 0.0 | 0.00 | 0.00 | 0.00 | 59 | 1007.5 |
| 20260906053050 | 83 | 277 | 0.0 | 2.0 | 0.00 | 0.00 | 0.00 | 59 | 1007.4 |
| 20260906052051 | 84 | 10 | 0.0 | 1.0 | 0.00 | 0.00 | 0.00 | 58 | 1007.3 |
| 20260906051050 | 84 | 211 | 0.0 | 2.0 | 0.00 | 0.00 | 0.00 | 57 | 1007.1 |
| 20260906050050 | 84 | 283 | 0.0 | 2.0 | 0.00 | 0.00 | 0.00 | 57 | 1007.2 |
| 20260906045051 | 85 | 222 | 0.0 | 1.0 | 0.00 | 0.00 | 0.00 | 56 | 1007.2 |
| 20260906044050 | 85 | 199 | 0.0 | 1.0 | 0.00 | 0.00 | 0.00 | 56 | 1007.2 |
| 20260906043051 | 85 | 209 | 0.0 | 0.0 | 0.00 | 0.00 | 0.00 | 58 | 1007.1 |
| 20260906042050 | 85 | 214 | 0.0 | 0.0 | 0.00 | 0.00 | 0.00 | 56 | 1007.2 |
| 20260906041049 | 85 | 220 | 0.0 | 1.0 | 0.00 | 0.00 | 0.00 | 56 | 1007.1 |
| 20260906040049 | 85 | 232 | 0.0 | 1.0 | 0.00 | 0.00 | 0.00 | 56 | 1007.3 |
| 20260906035050 | 86 | 217 | 0.0 | 1.0 | 0.00 | 0.00 | 0.00 | 56 | 1007.3 |
| 20260906034049 | 86 | 225 | 0.0 | 1.0 | 0.00 | 0.00 | 0.00 | 56 | 1007.1 |
| 20260906033051 | 86 | 215 | 0.0 | 2.0 | 0.00 | 0.00 | 0.00 | 55 | 1007.1 |
| 20260906032050 | 87 | 229 | 0.0 | 2.0 | 0.00 | 0.00 | 0.00 | 54 | 1007.1 |
| 20260906031049 | 87 | 205 | 0.0 | 0.0 | 0.00 | 0.00 | 0.00 | 53 | 1007.0 |
| 20260906030050 | 87 | 218 | 0.0 | 1.0 | 0.00 | 0.00 | 0.00 | 53 | 1007.1 |
| 20260906025050 | 87 | 228 | 1.0 | 1.0 | 0.00 | 0.00 | 0.00 | 53 | 1006.9 |
| 20260906024051 | 88 | 211 | 1.0 | 2.0 | 0.00 | 0.00 | 0.00 | 53 | 1006.7 |
| 20260906023050 | 88 | 201 | 1.0 | 2.0 | 0.00 | 0.00 | 0.00 | 53 | 1006.7 |
| 20260906022051 | 88 | 209 | 0.0 | 0.0 | 0.00 | 0.00 | 0.00 | 53 | 1006.6 |
| 20260906021050 | 88 | 222 | 0.0 | 1.0 | 0.00 | 0.00 | 0.00 | 53 | 1006.4 |
| 20260906020051 | 89 | 208 | 0.0 | 0.0 | 0.00 | 0.00 | 0.00 | 51 | 1006.5 |
| 20260906015051 | 90 | 222 | 0.0 | 0.0 | 0.00 | 0.00 | 0.00 | 51 | 1006.3 |
| 20260906014050 | 90 | 217 | 0.0 | 0.0 | 0.00 | 0.00 | 0.00 | 49 | 1006.2 |
| 20260906013049 | 91 | 215 | 0.0 | 0.0 | 0.00 | 0.00 | 0.00 | 48 | 1005.9 |
| 20260906012050 | 91 | 209 | 0.0 | 0.0 | 0.00 | 0.00 | 0.00 | 47 | 1005.8 |
| 20260906011050 | 92 | 335 | 0.0 | 0.0 | 0.00 | 0.00 | 0.00 | 47 | 1005.7 |
| 20260906010049 | 93 | 202 | 2.0 | 2.0 | 0.00 | 0.00 | 0.00 | 46 | 1005.8 |
| 20260906005050 | 94 | 188 | 1.0 | 2.0 | 0.00 | 0.00 | 0.00 | 45 | 1005.5 |
| 20260906004049 | 94 | 192 | 1.0 | 3.0 | 0.00 | 0.00 | 0.00 | 44 | 1005.7 |
| 20260906003049 | 95 | 208 | 1.0 | 2.0 | 0.00 | 0.00 | 0.00 | 43 | 1005.7 |
| 20260906002050 | 96 | 191 | 1.0 | 2.0 | 0.00 | 0.00 | 0.00 | 41 | 1005.7 |
| 20260906001049 | 97 | 196 | 1.0 | 2.0 | 0.00 | 0.00 | 0.00 | 40 | 1005.8 |
| 20260906000050 | 98 | 217 | 1.0 | 1.0 | 0.00 | 0.00 | 0.00 | 39 | 1005.7 |
| 20260905235049 | 99 | 246 | 0.0 | 2.0 | 0.00 | 0.00 | 0.00 | 38 | 1005.6 |
| 20260905234051 | 99 | 184 | 2.0 | 5.0 | 0.00 | 0.00 | 0.00 | 37 | 1005.8 |
| 20260905233050 | 99 | 216 | 0.0 | 3.0 | 0.00 | 0.00 | 0.00 | 37 | 1005.9 |
| 20260905232050 | 99 | 212 | 3.0 | 5.0 | 0.00 | 0.00 | 0.00 | 37 | 1005.7 |
| 20260905231049 | 99 | 324 | 0.0 | 1.0 | 0.00 | 0.00 | 0.00 | 36 | 1005.6 |
| 20260905230050 | 99 | 193 | 5.0 | 5.0 | 0.00 | 0.00 | 0.00 | 36 | 1005.5 |
| 20260905225049 | 100 | 194 | 5.0 | 9.0 | 0.00 | 0.00 | 0.00 | 37 | 1005.6 |
| 20260905224049 | 100 | 202 | 3.0 | 5.0 | 0.00 | 0.00 | 0.00 | 37 | 1005.6 |
| 20260905223049 | 100 | 203 | 5.0 | 7.0 | 0.00 | 0.00 | 0.00 | 37 | 1005.5 |
| 20260905222050 | 100 | 188 | 2.0 | 6.0 | 0.00 | 0.00 | 0.00 | 37 | 1005.5 |
| 20260905221049 | 100 | 189 | 2.0 | 8.0 | 0.00 | 0.00 | 0.00 | 36 | 1005.5 |
| 20260905220050 | 101 | 270 | 0.0 | 7.0 | 0.00 | 0.00 | 0.00 | 36 | 1005.4 |
| 20260905215049 | 100 | 199 | 5.0 | 10.0 | 0.00 | 0.00 | 0.00 | 36 | 1005.4 |
| 20260905214050 | 101 | 265 | 0.0 | 1.0 | 0.00 | 0.00 | 0.00 | 35 | 1005.4 |
| 20260905213050 | 101 | 213 | 1.0 | 9.0 | 0.00 | 0.00 | 0.00 | 38 | 1005.4 |
| 20260905212051 | 100 | 271 | 0.0 | 1.0 | 0.00 | 0.00 | 0.00 | 37 | 1005.5 |
| 20260905211050 | 100 | 231 | 6.0 | 9.0 | 0.00 | 0.00 | 0.00 | 36 | 1005.8 |
| 20260905210049 | 100 | 185 | 3.0 | 6.0 | 0.00 | 0.00 | 0.00 | 38 | 1005.9 |
| 20260905205050 | 100 | 234 | 3.0 | 5.0 | 0.00 | 0.00 | 0.00 | 38 | 1006.0 |
| 20260905204049 | 100 | 188 | 3.0 | 6.0 | 0.00 | 0.00 | 0.00 | 38 | 1006.3 |
| 20260905203050 | 100 | 288 | 2.0 | 5.0 | 0.00 | 0.00 | 0.00 | 38 | 1006.4 |
| 20260905202049 | 100 | 203 | 0.0 | 5.0 | 0.00 | 0.00 | 0.00 | 38 | 1006.5 |
| 20260905201050 | 100 | 191 | 6.0 | 8.0 | 0.00 | 0.00 | 0.00 | 37 | 1006.6 |
| 20260905200049 | 100 | 180 | 3.0 | 9.0 | 0.00 | 0.00 | 0.00 | 39 | 1006.6 |
| 20260905195050 | 100 | 163 | 6.0 | 6.0 | 0.00 | 0.00 | 0.00 | 39 | 1006.9 |